Showing default

YAOGAN-39 04A, 58141

Orbit data source: Space-Track

YAOGAN-39 04A, 58141 is a payload satellite owned by PLA GAD (CN) in LEO that was launched on Mon, 23 Oct 2023 UTC via a CHANG ZHENG 2D launch vehicle from the Xichang Space Center, China (XSC). Payloads include a variety of satellites, spacecraft, and rockets equipped with specific instruments for various scientific and technological missions. These include communications satellites like Starlink; space stations such as the ISS; scientific satellites like the Hubble; Earth observation satellites from companies like Planet Labs, Umbra, and HawkEye 360; GPS; miniature CubeSats for education and research; and military/defense satellites.

Loading next visibility...
YAOGAN-39 04A details
Identifier
58141, 2023-163A
Orbit
LEO
Last TLE update1 day ago
Origin
Flag of CNPLA GAD (CN / PRC)
ManufacturerDFH
MissionOperational Defense Sigint
Bus & MotorUnknown
Mass~300 kg wet, ~300 kg dry
Launch date (UTC)
2023-10-23 (1 year ago)
Launch vehicle
CHANG ZHENG 2D
Launch site
Xichang Space Center, China (XSC)
Object type
Payload
Rocket body
Debris
Shape & HBRBox + 2 Pan, 5 m
Radar Cross Section11.063 m², Large (>1 m²)

Expand to show TLE details & history

TLE from 1 day ago
0 YAOGAN-39 04A
1 58141U 23163A   24355.61888241  .00014180  00000-0  58753-3 0  9996
2 58141  34.9965 163.2187 0006606 118.6978 241.4401 15.23067428 64658
Epoch: 2024-12-20T14:51Z
Definitive object data (Epoch: 2024-12-20T14:51:11.44Z)
Latitude-0.00002°
Longitude-149.26079°
Altitude497.674 km
Speed7.617 km/s
True Right ascension10h 52m 52s
True Declination0° 00' 00"
Sunlit
Object was in daylight at TLE epoch
Visualization TLE readout
Latitude-14.36847°
Longitude45.24635°
Altitude497.335 km
Speed7.618 km/s
Apparent Right ascension01h 33m 30s
Apparent Declination-30° 03' 29"
Sunlit
Object is in daylight
Visualization observer readout
Local Sidereal Time15:57:45
Azimuth82.755° E
Elevation-59.095°
Doppler factor1
Orbital elements
Apogee altitude504.389 km
Perigee altitude495.302 km
Semi-major axis6,877.983 km
Eccentricity0.0006606
Inclination34.9965°
RAAN163.2187°
Arg. of periapsis118.6978°
True anomaly241.37364°
Mean anomaly241.4401°
Eccentric anomaly241.40687°
Mean motion3.80497 °/min
BSTAR0.00058753
Orbital period94.61 mins
Loading maneuver chart data...
Loading historical data...
Loading historical data...
Loading historical data...
Loading historical data...
Loading historical data...
Loading historical data...
Loading historical data...

YAOGAN-39 04A Visibility forecast

Observer location: undefined°, undefined

Span
Click to sort rows by Start time (UTC) header in descending order
Start Az.
Max El. time (UTC)
Max El. Az.
Max El.
End time (UTC)
End Az.
6 mins2024-12-21 17:58:13.695Z251.248° W2024-12-21 18:01:13.695Z191.85° SSW30.587°2024-12-21 18:04:13.695Z122.949° SE
4 mins2024-12-21 19:39:13.695Z230.277° WSW2024-12-21 19:40:13.695Z211.218° SW17.804°2024-12-21 19:43:13.695Z156.791° SSE
5 mins2024-12-22 15:56:13.695Z219.329° SW2024-12-22 15:58:13.695Z161.44° S29.045°2024-12-22 16:01:13.695Z106.9° ESE
|